User: anonymous   Login
Location: Unspecified
(0.0000°N, 0.0000°E)
Time: 13:13:07
(UTC+00:00)
Language:

Hubble Space Telescope - Orbit

View from above orbital plane
View from above orbital plane
View from above satellite
View from above satellite

Ground track
Ground track

The orbit data is extracted from the following two-line orbital elements,

1 20580U 90037B   22336.87486571  .00002045  00000-0  10761-3 0  9995
2 20580  28.4686 132.2502 0002780  58.5807  66.9043 15.11334877591975
Epoch (UTC): 02 December 2022 20:59:48
Eccentricity: 0.0002780
inclination: 28.4686°
perigee height: 530 km
apogee height: 534 km
right ascension of ascending node: 132.2502°
argument of perigee: 58.5807°
revolutions per day: 15.11334877
mean anomaly at epoch: 66.9043°
orbit number at epoch: 59197

The dashed part of the orbit path shows where the satellite is in the earth's shadow,  

DLR